www.pogodaiklimat.ru

Погода и климат >> Архив погоды >> Австрия >> Лиенц


ПОГОДА в Лиенце

  • Прогноз погоды в Лиенце
  • Монитор погоды в Лиенце

АРХИВ ПОГОДЫ в Лиенце

Время (UTC), дата Ветер
(напр.,м/с)
 
Видим.   Явления Облачность Т
(С)
Тd
(С)
f
(%)
Тe
(С)
Тes
(С)
Комфортность P
(гПа)
Po
(гПа)
Тmin
(С)
Tmax
(С)
R
(мм)
R24
(мм)
S
(см)
22 8.06 З 2 н/о н/о +17.6 +11.9 69 +18 +18 1021.9 945.7
23 8.06 штиль 0 н/о н/о +17.1 +11.6 70 +17 +17 1022.6 946.2
00 9.06 штиль 0 н/о н/о +15.4 +11.4 77 +15 +15 1023.4 946.5
01 9.06 ЮЗ 1 н/о н/о +13.9 +10.9 82 +14 +14 1023.9 946.6
02 9.06 В 1 н/о н/о +13.8 +11.1 84 +14 +14 1024.2 946.8
03 9.06 штиль 0 н/о н/о +13.7 +11.3 85 +13 +13 1024.4 947.0
04 9.06 З 1 н/о н/о +14.0 +10.7 80 +14 +14 1024.8 947.4
05 9.06 штиль 0 20 км 6/5 1200 м
[Sc Ac trans Ci fib]
+14.5 +11.1 80 +14 +15 1025.1 947.9 +13.7 +14.5
06 9.06 З 1 н/о н/о +16.6 +11.7 73 +17 +17 1024.5 947.8 +13.4 +24.2
07 9.06 штиль 0 н/о н/о +18.8 +11.5 63 +19 +19 1023.6 947.6
08 9.06 ЮВ 1 н/о н/о +20.9 +12.3 58 +24 +24 комфорт 1022.4 947.0
09 9.06 Ю 1 н/о н/о +22.6 +12.5 53 +25 +25 комфорт 1021.6 946.7
10 9.06 В 1 н/о н/о +24.1 +9.8 40 +25 +25 комфорт 1020.6 946.0
11 9.06 В 2 н/о н/о +25.7 +11.6 41 +27 +27 жарко 1018.7 944.7
12 9.06 ЮВ 3 20 км 4/3 1500 м
[Cu hum Ci fib]
+26.9 +11.0 37 +28 +38 жарко 1017.2 943.6
13 9.06 ЮВ 4 н/о н/о +28.3 +11.6 35 +29 +29 жарко 1016.3 943.1
14 9.06 ЮВ 4 н/о н/о +29.0 +11.6 34 +30 +30 жарко 1015.2 942.2
15 9.06 ЮВ 5 н/о н/о +29.1 +12.0 35 +30 +30 жарко 1014.5 941.6
16 9.06 ЮВ 4 н/о н/о +29.0 +12.4 36 +30 +30 жарко 1014.0 941.1
17 9.06 В 5 н/о н/о +27.5 +11.6 37 +28 +28 жарко 1014.3 941.0
18 9.06 В 4 н/о н/о +26.9 +12.0 40 +28 +28 жарко 1014.6 941.2 +16.2 +29.3
19 9.06 В 3 н/о н/о +25.5 +11.9 43 +27 +27 жарко 1014.9 941.1
20 9.06 Ю 2 н/о н/о +24.0 +12.0 47 +26 +26 жарко 1016.3 942.1
21 9.06 штиль 0 н/о н/о +22.4 +11.9 51 +25 +25 комфорт 1017.0 942.3
22 9.06 ЮВ 2 н/о н/о +22.0 +12.0 53 +24 +24 комфорт 1017.4 942.6
23 9.06 С 1 н/о н/о +19.1 +12.6 66 +21 +21 комфорт 1018.2 942.7
00 10.06 Ю 1 н/о н/о +18.0 +12.7 71 +19 +19 1018.5 942.7
01 10.06 В 1 н/о н/о +16.4 +12.3 77 +17 +17 1018.8 942.5
02 10.06 ЮЗ 1 н/о н/о +15.0 +11.6 80 +16 +16 1019.2 942.5
03 10.06 штиль 0 н/о н/о +15.5 +12.1 80 +15 +15 1018.8 942.3
04 10.06 ЮВ 1 н/о н/о +15.9 +11.7 76 +17 +17 1018.7 942.3
05 10.06 С 1 18 км 8/5 1050 м
[Cu med, cong Ac cuf]
+16.0 +12.3 79 +17 +17 1018.4 942.1 +14.8 +16.0
06 10.06 штиль 0 н/о н/о +17.4 +12.2 72 +17 +17 1017.8 941.9 +14.8 +27.0
07 10.06 В 1 н/о н/о +18.7 +12.3 66 +21 +21 комфорт 1017.1 941.5
08 10.06 ЮВ 1 н/о н/о +20.5 +12.2 59 +24 +24 комфорт 1016.0 941.0
09 10.06 штиль 0 н/о н/о +20.8 +12.8 60 +23 +23 комфорт 1015.9 941.0
10 10.06 ЮВ 2 н/о н/о +21.4 +13.8 62 +24 +24 комфорт 1015.9 941.1 0.0
11 10.06 СЗ 1 н/о н/о +22.8 +13.6 56 +26 +26 жарко 1014.8 940.4
12 10.06 Ю 3 15 км 10/3 600 м
[Cu hum As op]
+24.5 +14.0 52 +27 +29 жарко 1011.7 938.0 0.0
13 10.06 ЮВ 3 н/о н/о +26.0 +11.5 40 +27 +27 жарко 1010.3 937.0
14 10.06 ЮВ 6 н/о н/о +25.6 +11.9 42 +27 +27 жарко 1009.7 936.3
15 10.06 В 6 н/о н/о +27.1 +11.3 37 +28 +28 жарко 1008.9 935.9
16 10.06 ЮВ 5 н/о н/о +26.3 +9.8 35 +27 +27 жарко 1009.2 936.0
17 10.06 ЮВ 3 н/о н/о +25.8 +9.6 36 +26 +26 жарко 1009.1 935.8
18 10.06 В 3 н/о н/о +25.0 +9.3 37 +26 +26 жарко 1009.6 936.0 +17.1 +27.5 0.0
19 10.06 З 1 н/о н/о +22.2 +12.0 52 +25 +25 комфорт 1010.2 936.0
20 10.06 СЗ 2 н/о н/о +21.2 +11.4 54 +23 +23 комфорт 1010.9 936.4
21 10.06 ЮЗ 1 н/о н/о +20.7 +11.5 56 +24 +24 комфорт 1011.1 936.5
22 10.06 штиль 0 н/о н/о +19.0 +12.6 66 +20 +20 1011.2 936.2
23 10.06 З 2 н/о н/о +19.3 +11.9 62 +21 +21 комфорт 1011.6 936.6
00 11.06 штиль 0 н/о н/о +18.1 +11.9 67 +18 +18 1011.1 935.8
01 11.06 ЮЗ 2 н/о осадки н/о +18.7 +12.1 65 +20 +20 1011.3 936.2 0.5
02 11.06 штиль 0 н/о н/о +16.4 +13.5 83 +16 +16 1011.3 935.6 0.0
03 11.06 ЮВ 1 н/о {осадки} н/о +15.1 +13.1 88 +16 +16 1011.4 935.4 0.5
04 11.06 штиль 0 н/о н/о +15.0 +13.3 90 +15 +15 1011.9 935.8
05 11.06 З 1 20 км {ливн. осадки} 6/6 1200 м
[Cu med, cong Ac cuf]
+16.2 +13.8 86 +17 +18 1011.6 935.9 +14.8 +16.2
06 11.06 штиль 0 н/о {осадки} н/о +19.2 +13.6 70 +20 +20 1010.8 935.9 +14.5 +25.0 0.5
07 11.06 Ю 1 н/о н/о +21.3 +13.7 62 +24 +24 комфорт 1010.1 935.7 0.0
08 11.06 Ю 1 н/о н/о +23.5 +15.0 59 +26 +26 жарко 1009.0 935.3
09 11.06 В 5 н/о н/о +25.5 +16.0 56 +29 +29 душно 1008.3 935.1 0.0
10 11.06 В 6 н/о н/о +25.2 +15.1 54 +28 +28 жарко 1008.2 934.9
11 11.06 В 4 н/о н/о +26.6 +12.6 42 +28 +28 жарко 1007.9 934.9 0.0
12 11.06 В 5 20 км {ливн. осадки} 6/4 1200 м
[Cu med, cong Ac cuf]
+26.7 +9.6 34 +27 +32 жарко 1007.7 934.7 0.0
13 11.06 В 4 н/о н/о +28.1 +11.2 35 +29 +29 жарко 1007.0 934.4
14 11.06 В 7 н/о н/о +28.5 +11.8 36 +30 +30 жарко 1006.5 934.0
15 11.06 В 6 н/о н/о +28.4 +11.1 34 +29 +29 жарко 1006.0 933.5
16 11.06 В 7 н/о н/о +27.7 +10.7 35 +28 +28 жарко 1005.9 933.3
17 11.06 В 5 н/о н/о +26.4 +11.0 38 +27 +27 жарко 1006.7 933.7
18 11.06 В 8
{15}
н/о н/о +22.8 +13.5 56 +26 +26 жарко 1009.1 935.2 +19.0 +28.7 0.0
19 11.06 ЮВ 6
{18}
н/о н/о +19.3 +14.2 72 +20 +20 1011.1 936.2 0.0
20 11.06 ЮВ 3
{14}
н/о н/о +19.8 +13.3 66 +22 +22 комфорт 1012.0 937.1
21 11.06 Ю 2
{18}
н/о в посл. час осадки н/о +17.5 +14.9 85 +18 +18 1013.0 937.5 0.3
22 11.06 СЗ 2 н/о в посл. час осадки н/о +16.8 +14.6 87 +17 +17 1012.7 937.1 2
23 11.06 СЗ 2 н/о в посл. час осадки н/о +16.6 +15.0 90 +17 +17 1013.1 937.4 2
00 12.06 Ю 1
{18}
н/о осадки {ливн. осадки} н/о +16.5 +15.2 92 +17 +17 1013.3 937.6 7
01 12.06 В 1 н/о в посл. час осадки н/о +16.0 +14.9 93 +17 +17 1013.4 937.5 0.8
02 12.06 штиль 0 н/о н/о +15.7 +14.9 95 +15 +15 1012.9 937.0
03 12.06 Ю 1 н/о {осадки} н/о +15.5 +14.7 95 +16 +16 1012.7 936.7 0.8
04 12.06 В 1 н/о н/о +15.2 +14.5 96 +16 +16 1012.4 936.4
05 12.06 ЮВ 1 10 км 9/9 1500 м
[Sc As op]
+15.5 +14.5 94 +16 +16 1012.4 936.5 +15.2 +15.5
06 12.06 В 1
{18}
н/о {осадки} н/о +16.3 +14.9 91 +17 +17 1011.9 936.2 +15.2 +23.4 7
07 12.06 В 1 н/о н/о +18.3 +15.5 84 +20 +20 1011.3 936.2
08 12.06 Ю 1 н/о н/о +18.4 +14.9 80 +20 +20 1010.9 935.8
09 12.06 ЮЗ 1 н/о н/о +19.5 +15.0 75 +22 +22 комфорт 1010.2 935.4
10 12.06 СЗ 3 н/о н/о +21.8 +16.4 71 +26 +26 душно 1009.2 935.1
11 12.06 В 3 н/о н/о +24.4 +14.3 53 +27 +27 жарко 1008.0 934.5
12 12.06 В 5 15 км 9/0
[As op Ci fib]
+25.4 +12.2 44 +27 +30 жарко 1007.8 934.5 0.0
13 12.06 В 6 н/о н/о +26.6 +12.8 42 +28 +28 жарко 1007.4 934.5
14 12.06 В 5 н/о н/о +27.3 +11.7 38 +28 +28 жарко 1007.2 934.4
15 12.06 ЮВ 7 н/о н/о +25.9 +12.0 42 +27 +27 жарко 1007.6 934.5
16 12.06 В 5 н/о н/о +25.0 +11.8 44 +27 +27 жарко 1008.5 935.1
17 12.06 В 4 н/о н/о +24.9 +12.2 45 +27 +27 жарко 1008.3 934.9
18 12.06 В 4 н/о н/о +24.3 +12.2 47 +26 +26 жарко 1008.5 934.9 +16.1 +27.6 0.0
19 12.06 В 3 н/о н/о +23.7 +12.4 49 +26 +26 жарко 1009.1 935.3
20 12.06 ЮЗ 1 н/о н/о +22.0 +13.3 58 +25 +25 комфорт 1009.9 935.7
21 12.06 СЗ 1 н/о н/о +19.8 +13.7 68 +23 +23 комфорт 1010.6 935.8
22 12.06 СЗ 2 н/о н/о +18.6 +12.7 69 +20 +20 1011.7 936.5
23 12.06 З 1 н/о н/о +17.4 +12.5 73 +18 +18 1012.0 936.5
00 13.06 Ю 1 н/о н/о +15.6 +12.4 81 +16 +16 1012.5 936.5
01 13.06 штиль 0 н/о н/о +14.8 +12.1 84 +15 +15 1012.8 936.6
02 13.06 Ю 1 н/о н/о +14.4 +12.0 85 +15 +15 1013.0 936.7
03 13.06 В 1 н/о н/о +14.0 +11.5 85 +14 +14 1013.3 936.8
04 13.06 штиль 0 н/о н/о +13.2 +11.4 89 +13 +13 1014.0 937.3
05 13.06 Ю 1 25 км 5/0
[Ac trans]
+14.6 +12.1 85 +15 +16 1014.2 937.8 +13.0 +14.6
06 13.06 С 1 н/о н/о +18.7 +12.7 68 +21 +21 комфорт 1013.3 938.0 +13.0 +24.4
07 13.06 ЮВ 1 н/о н/о +20.3 +12.4 60 +23 +23 комфорт 1012.8 938.0
08 13.06 ЮВ 1 н/о н/о +21.4 +11.8 54 +23 +23 комфорт 1012.5 937.9
09 13.06 ЮВ 2 н/о н/о +23.3 +14.2 57 +27 +27 душно 1011.6 937.6
10 13.06 В 5 н/о н/о +26.2 +13.0 44 +28 +28 жарко 1010.3 937.1
11 13.06 В 7 н/о н/о +26.8 +10.2 35 +27 +27 жарко 1010.2 937.0
12 13.06 ЮВ 7 25 км 5/0
[Ac trans]
+25.8 +10.4 38 +27 +30 жарко 1010.2 936.8
13 13.06 ЮВ 5 н/о н/о +26.0 +9.6 36 +27 +27 жарко 1010.2 936.8
14 13.06 ЮВ 8
{13}
н/о н/о +27.0 +11.3 38 +28 +28 жарко 1009.9 936.8
15 13.06 В 7
{13}
н/о н/о +26.0 +12.0 42 +27 +27 жарко 1010.2 936.9
16 13.06 В 7 н/о н/о +24.8 +11.9 44 +26 +26 жарко 1010.7 937.1
17 13.06 В 6 н/о н/о +24.7 +11.4 43 +26 +26 жарко 1011.2 937.5
18 13.06 В 6
{13}
н/о н/о +24.5 +11.2 43 +26 +26 жарко 1011.8 938.0 +17.8 +27.3
19 13.06 Ю 3 н/о н/о +22.8 +10.2 45 +25 +25 комфорт 1013.4 939.1
20 13.06 В 1 н/о н/о +20.7 +9.6 49 +23 +23 комфорт 1015.2 940.2
21 13.06 штиль 0 н/о н/о +18.0 +10.1 60 +18 +18 1016.8 941.0
22 13.06 З 1 н/о н/о +16.3 +10.8 70 +17 +17 1018.1 941.8
23 13.06 штиль 0 н/о н/о +15.1 +10.5 74 +15 +15 1018.9 942.3
00 14.06 С 1 н/о н/о +15.1 +9.6 70 +16 +16 1019.2 942.5
01 14.06 СЗ 2 н/о н/о +15.1 +9.0 67 +15 +15 1019.3 942.6
02 14.06 СЗ 2 н/о н/о +14.4 +8.5 68 +14 +14 1019.6 942.7
03 14.06 СЗ 2 н/о н/о +13.6 +8.6 72 +13 +13 1019.8 942.7
04 14.06 С 1 н/о н/о +12.9 +8.3 74 +13 +13 1020.8 943.4
05 14.06 штиль 0 30 км ясно +14.0 +8.8 71 +14 +16 1020.9 943.8 +12.8 +14.2
06 14.06 СЗ 1 н/о н/о +17.2 +7.3 52 +18 +18 1020.5 944.2 +12.8 +24.5
07 14.06 штиль 0 н/о н/о +19.0 +6.6 44 +19 +19 1020.0 944.2
08 14.06 ЮВ 1 н/о н/о +21.6 +8.6 43 +23 +23 комфорт 1019.1 944.0
09 14.06 В 1 н/о н/о +22.7 +9.3 42 +24 +24 комфорт 1018.6 943.8
10 14.06 В 1 н/о н/о +25.3 +8.1 33 +25 +25 комфорт 1017.3 943.2
11 14.06 ЮВ 1 н/о н/о +25.9 +8.0 32 +26 +26 жарко 1016.5 942.6
12 14.06 СЗ 1 30 км 6/0
[Ci sp]
+28.2 +8.0 28 +28 +46 жарко 1015.1 941.9
13 14.06 ЮВ 3 н/о н/о +29.8 +8.8 27 +29 +29 жарко 1013.6 940.9
14 14.06 В 5 н/о н/о +30.5 +10.2 28 +30 +30 жарко 1012.7 940.2
15 14.06 ЮВ 6 н/о н/о +31.3 +8.7 25 +30 +30 жарко 1012.1 939.8
16 14.06 ЮВ 5 н/о н/о +30.0 +9.3 28 +30 +30 жарко 1011.9 939.3
17 14.06 ЮВ 6 н/о н/о +28.5 +9.9 31 +29 +29 жарко 1012.2 939.3
18 14.06 ЮВ 4 н/о н/о +27.4 +9.9 33 +28 +28 жарко 1012.7 939.5 +17.2 +31.6
19 14.06 ЮВ 2 н/о н/о +25.4 +9.4 36 +26 +26 жарко 1013.4 939.7
20 14.06 Ю 3 н/о н/о +25.2 +9.3 37 +26 +26 жарко 1013.8 940.0
21 14.06 Ю 2 н/о н/о +25.1 +8.1 34 +25 +25 комфорт 1014.3 940.4
22 14.06 З 1 н/о н/о +21.2 +9.8 48 +23 +23 комфорт 1016.0 941.1
23 14.06 З 1 н/о н/о +19.2 +10.2 56 +21 +21 комфорт 1016.1 940.7
00 15.06 З 1 н/о н/о +18.9 +10.2 57 +21 +21 комфорт 1015.9 940.4
01 15.06 штиль 0 н/о н/о +17.0 +10.7 66 +17 +17 1016.5 940.5
02 15.06 СВ 1 н/о н/о +16.0 +9.6 66 +17 +17 1016.2 940.0
03 15.06 ЮЗ 1 н/о н/о +15.3 +10.1 71 +16 +16 1016.6 940.2
04 15.06 СВ 1 н/о н/о +16.4 +9.8 65 +17 +17 1016.9 940.7
05 15.06 В 1 20 км слаб. морось 9/6 1500 м
[Sc Ac und Ci fib]
+16.5 +10.8 69 +17 +18 1017.2 941.0 +16.0 +16.8 0.0
06 15.06 СВ 1 н/о н/о +17.7 +11.6 67 +19 +19 1016.5 940.7 +14.8 +27.6 0.0
07 15.06 ЮВ 1 н/о н/о +20.7 +10.8 53 +24 +24 комфорт 1015.5 940.5
08 15.06 штиль 0 н/о н/о +22.6 +10.5 46 +24 +24 комфорт 1014.7 940.2
09 15.06 ЮВ 1 н/о н/о +25.5 +12.6 45 +27 +27 жарко 1013.5 939.9
10 15.06 Ю 3 н/о н/о +26.5 +12.3 41 +28 +28 жарко 1012.7 939.3
11 15.06 В 2 н/о н/о +27.7 +12.4 39 +29 +29 жарко 1011.8 938.8
12 15.06 В 5 20 км 8/0
[Ac und Ci fib]
+28.2 +11.7 36 +29 +33 жарко 1011.1 938.2
13 15.06 ЮВ 3 н/о н/о +28.5 +11.1 34 +29 +29 жарко 1010.4 937.6 0.0
14 15.06 В 5 н/о н/о +29.6 +11.2 32 +30 +30 жарко 1009.3 936.9
15 15.06 В 6 н/о н/о +29.2 +11.8 34 +30 +30 жарко 1009.0 936.5 0.0
16 15.06 В 6 н/о н/о +28.8 +11.4 34 +29 +29 жарко 1008.5 936.0
17 15.06 ЮВ 6 н/о н/о +27.5 +11.0 36 +28 +28 жарко 1008.8 935.9
18 15.06 ЮВ 5 н/о н/о +26.4 +11.3 39 +28 +28 жарко 1009.2 936.0 +17.2 +30.1 0.0
19 15.06 ЮВ 1 н/о н/о +24.5 +11.5 44 +26 +26 жарко 1010.3 936.6
20 15.06 С 1 н/о н/о +23.2 +10.9 46 +25 +25 комфорт 1011.2 937.1
21 15.06 штиль 0 н/о н/о +20.7 +11.9 57 +22 +22 комфорт 1012.2 937.5

 

Местоположение метеостанции Лиенц (Австрия): широта 46.83 долгота 12.82 высота над уровнем моря 666 м.

В архиве по умолчанию представлена погода в Лиенце за последнюю неделю. Архивные данные за месяц целиком и за предыдущие месяцы, начиная с января 2011 года, Вы можете получить, выбрав интересующий диапазон дат из раскрывающегося списка и нажав кнопку "Ввод!".


*Определитесь, кто Вы:
робот инопланетянин человек

Внимание! Время в таблицах - всемирное. Для получения местного времени необходимо прибавить поправку, которая равна 1 ч.

Смотрите также архив погоды в соседних городах и на ближайших метеорологических станциях:

Погода в Кёчах-Маутен (Австрия) (22 км)
Погода в Деллах-им-Драутале (Австрия) (23 км)
Погода на Зоннблике (Австрия) (26 км)
Погода на Зоннблике АМС (Австрия) (26 км)
Погода в Зиллиане (Австрия) (32 км)
Погода в Мальнице (Австрия) (32 км)
Погода в Виргене (Австрия) (34 км)
Погода в Альпийском центре (Австрия) (36 км)
Погода в Гачаге (Австрия) (39 км)
Погода в Раурисе (Австрия) (45 км)

Пояснения к столбцам:

Ветер - указаны скорость ветра в м/с - средняя за 10 мин, порывы в срок и между сроками (в фигурных скобках) и направление, откуда дует ветер: С - северный, СВ - северо-восточный, В - восточный, ЮВ - юго-восточный, Ю - южный, ЮЗ - юго-западный, З - западный, СЗ - северо-западный.
Видимость - горизонтальная дальность видимости в метрах или километрах. При видимости от 1 до 10 км при отсутствии осадков обычно наблюдается дымка, при ухудшении видимости до 1 км и менее - туман. В сухую погоду видимость может ухудшаться дымом, пылью или мглою.
Явления - указаны атмосферные явления, наблюдавшиеся в срок или в последний час перед сроком; фигурными скобками обозначены явления, наблюдавшиеся между сроками (за 1-3 часа до срока); квадратными скобками обозначены град или гололедные отложения с указанием их диаметра в мм.
Облачность - указаны через наклонную черту общая и нижняя облачность в баллах и высота нижней границы облаков в метрах; квадратными скобками обозначены формы облаков: Ci - перистые, Cs - перисто-слоистые, Cc - перисто-кучевые, Ac - высококучевые, As - высокослоистые, Sc - слоисто-кучевые, Ns - слоисто-дождевые, Cu - кучевые, Cb - кучево-дождевые. Подробнее классификацию облаков см. в Атласе облаков (PDF).
T - Температура воздуха - температура, измеренная на высоте 2 м над землей.
Td - Температура точки росы - температура, при понижении до которой содержащийся в воздухе водяной пар достигнет насыщения.
f - Относительная влажность воздуха - влажноcть воздуха, измеренная на высоте 2 м над землей.
Te - Эффективная температура - температура, которую ощущает одетый по сезону человек в тени. Характеристика душности погоды. При расчете учитывается влияние влажности воздуха и скорости ветра на теплоощущения человека.
Tes - Эффективная температура на солнце - температура, которую ощущает человек, с поправкой на солнечный нагрев. Характеристика знойности погоды. Зависит от высоты солнца над горизонтом, облачности и скорости ветра. Ночью, в пасмурную погоду, а также при ветре 12 м/с и более поправка равна нулю.
P - Атмосферное давление - приведенное к уровню моря атмосферное давление.
Po - Атмосферное давление - измеренное на уровне метеостанции атмосферное давление.
Tmin - Минимальная температура - минимум температуры воздуха на высоте 2 м над землей.
Tmax - Максимальная температура - максимум температуры воздуха на высоте 2 м над землей.
R - Количество осадков - Количество выпавших осадков за период времени, мм. При наведении курсора мыши на число - период времени, за который выпало указанное количество осадков.
R24 - Количество осадков - Количество выпавших осадков за 24 часа, мм.
S - Снежный покров - Высота снежного покрова, см. При наведении курсора мыши на число - состояние снежного покрова и степень покрытия местности в баллах.